Weather History for Albion, NE

Change the Weather History Date:

Tuesday, July 23, 2013

  Actual Average (KOFK) Record (KOFK)
Temperature  
Mean Temperature 72 °F 75 °F  
Max Temperature 79 °F 87 °F 104 °F (1936)
Min Temperature 64 °F 64 °F 48 °F (2003)
Degree Days  
Heating Degree Days 0 0  
Month to date heating degree days 0  
Since 1 June heating degree days 30  
Since 1 July heating degree days 0  
Cooling Degree Days 6 10  
Month to date cooling degree days 228  
Year to date cooling degree days 475  
Since 1 June cooling degree days 414  
Growing Degree Days 22 (Base 50)    
Moisture  
Dew Point 61 °F    
Average Humidity 73    
Maximum Humidity 96    
Minimum Humidity 52    
Precipitation  
Precipitation 0.31 in 0.10 in 1.33 in (1896)
Month to date precipitation 2.50  
Year to date precipitation 16.46  
Snow  
Snow 0.00 in 0.00 in - ()
Month to date snowfall 0.0  
Since 1 July snowfall 0.0  
Snow Depth -    
Sea Level Pressure  
Sea Level Pressure 29.99 in    
Wind  
Wind Speed 5 mph (NE)    
Max Wind Speed 17 mph    
Max Gust Speed 16 mph    
Visibility 10 miles    
Events Rain , Thunderstorm    
T = Trace of Precipitation, MM = Missing Value Source: NWS Daily Summary

Daily Weather History Graph

Daily Weather History Graph

Search for Another Location

Airport:

Trip Planner

Search our weather history database for the weather conditions in past years. The results will help you decide how hot, cold, wet, or windy it might be!

Date:

Astronomy

Jul. 23, 2013 Rise Set
Actual Time 6:17 AM CDT 8:58 PM CDT
Civil Twilight 5:45 AM CDT 9:31 PM CDT
Nautical Twilight 5:05 AM CDT 10:11 PM CDT
Astronomical Twilight 4:19 AM CDT 10:57 PM CDT
Moon 9:25 PM CDT (7/23) 7:30 AM CDT (7/23)
Length of Visible Light 15h 45m
Length of Day
14h 40m
Full, 99% of the Moon is Illuminated
Jul 23
Full
Jul 29
Last Quarter
Aug 6
New
Aug 14
First Quarter
Aug 20
Full

Hourly Weather History & Observations

Time (CDT) Temp. Dew Point Humidity Pressure Visibility Wind Dir Wind Speed Gust Speed Precip Events Conditions
12:15 AM 66.9 °F 58.6 °F 75% 29.91 in 10.0 mi Calm Calm - N/A   Clear
12:35 AM 66.7 °F 58.3 °F 74% 29.91 in 10.0 mi Calm Calm - N/A   Clear
12:55 AM 67.8 °F 58.1 °F 71% 29.91 in 10.0 mi NE 3.5 mph - N/A   Clear
1:15 AM 69.8 °F 58.3 °F 67% 29.89 in 10.0 mi NE 5.8 mph - N/A   Clear
1:35 AM 69.3 °F 58.3 °F 68% 29.90 in 10.0 mi Calm Calm - N/A   Clear
1:55 AM 67.5 °F 58.3 °F 72% 29.91 in 10.0 mi Calm Calm - N/A   Clear
2:15 AM 66.7 °F 58.1 °F 74% 29.91 in 10.0 mi ENE 4.6 mph - N/A   Clear
2:35 AM 65.7 °F 58.1 °F 77% 29.90 in 10.0 mi Calm Calm - N/A   Clear
2:55 AM 66.0 °F 58.1 °F 76% 29.92 in 10.0 mi Calm Calm - N/A Thunderstorm Clear
3:15 AM 65.3 °F 58.3 °F 78% 29.93 in 10.0 mi Calm Calm - N/A   Clear
3:35 AM 66.7 °F 59.0 °F 76% 29.99 in 10.0 mi NW 12.7 mph - N/A Thunderstorm Thunderstorm
3:55 AM 67.8 °F 59.7 °F 75% 30.03 in 10.0 mi NNW 17.3 mph - N/A Rain , Thunderstorm Thunderstorms and Rain
4:15 AM 65.3 °F 61.7 °F 88% 30.08 in 5.0 mi NW 11.5 mph - 0.10 in Rain , Thunderstorm Thunderstorms and Rain
4:35 AM 64.9 °F 61.9 °F 90% 30.08 in 7.0 mi WNW 6.9 mph - 0.15 in Rain , Thunderstorm Heavy Thunderstorms and Rain
4:55 AM 64.8 °F 62.1 °F 91% 30.05 in 7.0 mi NNW 3.5 mph - 0.16 in Rain , Thunderstorm Light Thunderstorms and Rain
5:15 AM 64.8 °F 62.6 °F 93% 30.03 in 5.0 mi ESE 3.5 mph - 0.04 in Rain , Thunderstorm Rain
5:35 AM 64.6 °F 62.6 °F 93% 30.04 in 5.0 mi SSW 5.8 mph - 0.09 in Rain Rain
5:55 AM 64.4 °F 62.8 °F 94% 30.01 in 5.0 mi SE 3.5 mph - 0.13 in Rain Rain
6:15 AM 64.4 °F 62.6 °F 94% 29.95 in 7.0 mi ESE 9.2 mph - 0.02 in Rain Light Rain
6:35 AM 64.4 °F 62.6 °F 94% 29.92 in 7.0 mi SE 10.4 mph - 0.02 in   Clear
6:55 AM 64.0 °F 62.8 °F 96% 29.95 in 7.0 mi South 4.6 mph - 0.02 in   Clear
7:15 AM 64.4 °F 62.6 °F 94% 29.97 in 10.0 mi North 10.4 mph - N/A   Scattered Clouds
7:35 AM 64.8 °F 62.6 °F 93% 29.97 in 10.0 mi NNW 6.9 mph - N/A   Clear
7:55 AM 64.8 °F 62.8 °F 93% 29.96 in 10.0 mi SSW 4.6 mph - N/A   Clear
8:15 AM 65.7 °F 63.5 °F 93% 29.95 in 10.0 mi Calm Calm - N/A   Clear
8:35 AM 65.8 °F 63.5 °F 92% 29.91 in 10.0 mi SE 5.8 mph - N/A   Clear
8:55 AM 66.2 °F 63.5 °F 91% 29.92 in 10.0 mi East 3.5 mph - N/A   Clear
9:15 AM 67.1 °F 63.9 °F 89% 29.96 in 10.0 mi NNE 4.6 mph - N/A   Clear
9:35 AM 68.7 °F 63.3 °F 83% 29.97 in 10.0 mi NNE 5.8 mph - N/A   Clear
9:55 AM 70.5 °F 62.4 °F 75% 29.99 in 10.0 mi NNE 4.6 mph - N/A   Clear
10:15 AM 70.3 °F 62.1 °F 75% 29.98 in 10.0 mi ENE 6.9 mph - N/A   Clear
10:35 AM 69.8 °F 62.4 °F 77% 29.98 in 10.0 mi NE 11.5 mph - N/A   Clear
10:55 AM 69.3 °F 61.9 °F 77% 30.00 in 10.0 mi NE 9.2 mph - N/A   Scattered Clouds
11:15 AM 68.9 °F 62.1 °F 79% 29.99 in 10.0 mi NE 4.6 mph - N/A Rain Light Rain
11:35 AM 68.9 °F 61.9 °F 78% 29.96 in 10.0 mi SE 6.9 mph - N/A   Scattered Clouds
11:55 AM 69.8 °F 61.7 °F 75% 29.99 in 10.0 mi ESE 6.9 mph - N/A   Clear
12:15 PM 70.7 °F 61.9 °F 74% 29.99 in 10.0 mi East 6.9 mph - N/A   Scattered Clouds
12:35 PM 72.5 °F 61.9 °F 69% 29.97 in 10.0 mi ENE 10.4 mph - N/A   Scattered Clouds
12:55 PM 73.2 °F 61.5 °F 67% 29.99 in 10.0 mi NE 9.2 mph 16.1 mph N/A   Clear
1:15 PM 73.6 °F 61.0 °F 65% 30.00 in 10.0 mi ENE 5.8 mph - N/A   Clear
1:35 PM 74.7 °F 61.2 °F 63% 30.00 in 10.0 mi NE 10.4 mph - N/A   Clear
1:55 PM 75.6 °F 61.0 °F 60% 30.00 in 10.0 mi ENE 4.6 mph - N/A   Clear
2:15 PM 76.8 °F 61.9 °F 60% 30.00 in 10.0 mi East 5.8 mph - N/A   Clear
2:35 PM 77.5 °F 61.7 °F 58% 30.01 in 10.0 mi NE 8.1 mph - N/A   Scattered Clouds
3:15 PM 78.3 °F 61.0 °F 55% 30.01 in 10.0 mi ENE 9.2 mph - N/A   Mostly Cloudy
3:35 PM 78.4 °F 61.5 °F 56% 30.01 in 10.0 mi East 8.1 mph - N/A   Scattered Clouds
3:55 PM 77.5 °F 60.3 °F 55% 30.01 in 10.0 mi ENE 6.9 mph - N/A   Scattered Clouds
4:15 PM 77.7 °F 60.8 °F 56% 30.01 in 10.0 mi ENE 8.1 mph - N/A   Mostly Cloudy
4:35 PM 78.3 °F 60.3 °F 54% 30.01 in 10.0 mi ENE 6.9 mph - N/A   Mostly Cloudy
4:55 PM 79.3 °F 60.3 °F 52% 30.00 in 10.0 mi East 3.5 mph - N/A   Scattered Clouds
5:15 PM 77.9 °F 59.9 °F 54% 30.01 in 10.0 mi NNE 4.6 mph - N/A   Scattered Clouds
5:35 PM 79.0 °F 59.7 °F 52% 30.01 in 10.0 mi ENE 3.5 mph - N/A   Scattered Clouds
5:55 PM 78.1 °F 60.6 °F 55% 30.00 in 10.0 mi East 3.5 mph - N/A   Scattered Clouds
6:15 PM 78.8 °F 61.3 °F 55% 30.00 in 10.0 mi ESE 6.9 mph - N/A   Mostly Cloudy
6:35 PM 78.6 °F 60.1 °F 53% 29.99 in 10.0 mi NE 5.8 mph - N/A   Scattered Clouds
6:55 PM 78.3 °F 60.1 °F 53% 30.00 in 10.0 mi NE 6.9 mph - N/A   Clear
7:15 PM 78.3 °F 59.9 °F 53% 29.99 in 10.0 mi NE 5.8 mph - N/A   Clear
7:35 PM 77.4 °F 59.7 °F 54% 30.00 in 10.0 mi NNE 5.8 mph - N/A   Clear
7:55 PM 76.1 °F 60.3 °F 58% 30.00 in 10.0 mi NE 3.5 mph - N/A   Clear
8:15 PM 75.0 °F 62.2 °F 64% 30.00 in 10.0 mi NE 3.5 mph - N/A   Clear
8:35 PM 73.0 °F 63.9 °F 73% 30.00 in 10.0 mi NE 3.5 mph - N/A   Clear
8:55 PM 72.0 °F 62.1 °F 71% 30.01 in 10.0 mi NNE 8.1 mph - N/A   Clear
9:15 PM 70.7 °F 61.3 °F 72% 30.01 in 10.0 mi NNE 5.8 mph - N/A   Clear
9:35 PM 69.8 °F 59.9 °F 71% 30.02 in 10.0 mi NE 8.1 mph - N/A   Clear
9:55 PM 69.1 °F 59.4 °F 71% 30.02 in 10.0 mi NE 8.1 mph - N/A   Clear
10:15 PM 68.5 °F 59.0 °F 72% 30.03 in 10.0 mi NE 6.9 mph - N/A   Clear
10:35 PM 68.0 °F 58.8 °F 72% 30.03 in 10.0 mi NE 8.1 mph - N/A   Clear
10:55 PM 67.5 °F 58.5 °F 73% 30.03 in 10.0 mi NE 6.9 mph - N/A   Clear
11:15 PM 67.1 °F 58.3 °F 73% 30.03 in 10.0 mi NE 8.1 mph - N/A   Clear
11:35 PM 66.6 °F 58.1 °F 74% 30.04 in 10.0 mi NE 6.9 mph - N/A   Clear
11:55 PM 65.8 °F 58.1 °F 76% 30.05 in 10.0 mi NE 6.9 mph - N/A   Clear